Location: Oberwangen
(47.4286°N, 8.9679°E)
Time: 00:59:47
(UTC+00:00)

Cosmos 1980 - Visible Passes

Search period start: 24 October 2021 00:00
Search period end: 03 November 2021 00:00
Orbit: 840 x 846 km, 71.0° (Epoch: 23 October)

Date Brightness Start Highest point End Pass type
(mag) Time Alt. Az. Time Alt. Az. Time Alt. Az.
24 Oct 6.2 03:26:44 10° N 03:30:00 15° NE 03:33:17 10° ENE visible
24 Oct 4.2 05:09:39 10° NNW 05:15:17 63° ENE 05:20:54 10° SE visible
25 Oct 6.3 03:12:09 10° N 03:15:19 15° NE 03:18:30 10° ENE visible
25 Oct 4.3 04:55:01 10° NNW 05:00:39 60° ENE 05:06:15 10° SE visible
26 Oct 6.3 02:57:35 10° N 03:00:39 15° NE 03:03:42 10° ENE visible
26 Oct 4.3 04:40:24 10° NNW 04:46:01 58° ENE 04:51:35 10° SE visible
27 Oct 6.3 02:43:01 10° N 02:45:58 14° NE 02:48:55 10° ENE visible
27 Oct 4.4 04:25:47 10° NNW 04:31:22 56° ENE 04:36:56 10° SE visible
28 Oct 6.4 02:28:26 10° N 02:31:17 14° NE 02:34:06 10° ENE visible
28 Oct 4.4 04:11:09 10° NNW 04:16:43 54° ENE 04:22:16 10° SE visible
29 Oct 6.4 02:13:53 10° N 02:16:35 13° NE 02:19:18 10° ENE visible
29 Oct 4.5 03:56:32 10° NNW 04:02:05 52° ENE 04:07:36 10° SE visible
29 Oct 5.6 18:51:12 10° S 18:52:15 16° S 18:52:15 16° S visible
30 Oct 6.4 01:59:44 11° N 02:01:54 13° NNE 02:04:29 10° ENE visible
30 Oct 4.5 03:41:54 10° NNW 03:47:26 50° ENE 03:52:55 10° SE visible
30 Oct 4.6 05:26:26 10° NW 05:31:15 29° WSW 05:36:03 10° SSW visible
30 Oct 4.8 18:36:36 10° S 18:39:28 30° S 18:39:28 30° S visible
31 Oct 6.4 01:46:16 12° NNE 01:47:13 13° NNE 01:49:39 10° ENE visible
31 Oct 4.5 03:28:11 15° NNW 03:32:47 48° NE 03:38:15 10° SE visible
31 Oct 4.5 05:11:45 10° NW 05:16:39 30° WSW 05:21:31 10° SSW visible
31 Oct 3.9 18:22:00 10° S 18:26:35 47° SE 18:26:35 47° SE visible
31 Oct 6.0 20:06:49 10° WSW 20:08:31 18° W 20:08:31 18° W visible
01 Nov 6.5 01:32:59 12° NE 01:32:59 12° NE 01:34:49 10° NE visible
01 Nov 4.6 03:14:55 23° N 03:18:09 46° NE 03:23:34 10° SE visible
01 Nov 4.4 04:57:05 10° NW 05:02:01 32° WSW 05:06:58 10° SSW visible
01 Nov 3.8 18:07:25 10° S 18:12:49 50° ESE 18:13:34 47° E visible
01 Nov 5.5 19:52:07 10° WSW 19:55:29 27° W 19:55:29 27° W visible
02 Nov 6.6 01:19:53 10° NE 01:19:53 10° NE 01:19:58 10° NE visible
02 Nov 4.6 03:01:48 35° NNE 03:03:29 45° NE 03:08:54 10° SE visible
02 Nov 4.3 04:43:44 16° NW 04:47:25 33° WSW 04:52:25 10° SSW visible
02 Nov 3.9 17:52:49 10° S 17:58:12 48° ESE 18:00:22 32° ENE visible
02 Nov 5.2 19:37:24 10° WSW 19:42:17 33° NW 19:42:17 33° NW visible
